Location: Unspecified
(0.0000°N, 0.0000°E)
Time: 10:24:56
(UTC+01:00)

Cosmos 1812 Rocket - Visible Passes

Search period start: 27 November 2014 00:00
Search period end: 07 December 2014 00:00
Orbit: 606 x 635 km, 82.5° (Epoch: 26 November)

Date Brightness Start Highest point End Pass type
(mag) Time Alt. Az. Time Alt. Az. Time Alt. Az.
27 Nov 5.5 19:15:03 10° ENE 19:15:58 11° E 19:16:54 10° E visible
27 Nov 5.5 20:49:46 10° NW 20:53:33 28° W 20:57:24 10° SSW visible
28 Nov 4.6 19:30:07 10° NNE 19:33:43 24° E 19:37:20 10° SE visible
28 Nov 6.6 21:09:23 10° WNW 21:11:19 13° W 21:13:15 10° WSW visible
29 Nov 3.6 19:47:07 10° N 19:51:27 57° E 19:55:50 10° SSE visible
30 Nov 4.1 20:04:50 10° NNW 20:09:11 59° W 20:13:35 10° S visible
01 Dec 5.8 20:23:17 10° NW 20:26:56 25° W 20:30:37 10° SSW visible
02 Dec 6.8 20:43:27 10° WNW 20:44:42 11° W 20:45:57 10° WSW visible
03 Dec 3.6 19:20:25 10° N 19:24:49 66° E 19:29:15 10° SSE visible
04 Dec 4.5 19:38:15 10° NNW 19:42:33 51° W 19:46:54 10° S visible
05 Dec 6.2 19:56:50 10° NW 20:00:18 22° W 20:03:48 10° SW visible
